Wind_Speed
27 28 28 29 28 27 26 25 24 23 22 22 22 22 21 20 19 18 17 16 15 14 13 12 11 10 10 9 9 9 9 10 10 11 12 13 14 15 16 17 19 19 19 19 19 18 17 16 15 14 13 12 11 10 10 10 10 10 10 10 10 11 11 12 12 13 14 14 15 15 15 15 15 15 15 14 14 14 14 15 16 16 16 17 17
23 26 27 28 29 29 27 26 26 25 24 23 24 23 22 21 21 20 19 18 17 16 15 14 13 12 11 11 11 11 11 11 12 12 13 14 15 16 17 18 18 19 19 19 19 18 17 16 15 14 13 12 12 11 11 10 10 10 10 10 10 10 11 11 12 12 13 13 14 14 15 16 16 16 15 15 14 14 14 14 16 16 17 17 18
20 23 26 26 27 28 28 28 27 26 26 25 25 24 23 22 22 21 20 20 19 18 18 16 15 14 13 13 13 13 13 13 14 14 15 16 16 17 17 18 18 19 19 19 19 18 18 17 15 14 13 13 12 12 11 11 11 11 10 10 10 10 11 11 11 12 12 13 13 14 15 15 16 16 15 15 15 15 14 14 15 16 16 17 18
19 20 23 24 25 26 27 28 28 27 27 26 26 24 24 24 23 22 22 21 20 20 20 19 17 16 15 15 15 15 15 15 16 16 17 17 18 18 18 18 18 19 19 19 18 18 17 17 16 15 14 13 13 12 12 12 11 11 11 11 11 11 11 11 11 12 12 12 13 14 14 15 15 16 16 15 15 15 15 15 15 15 16 16 17
18 18 20 22 24 25 25 25 26 26 26 26 25 25 25 24 24 23 23 22 21 21 21 20 20 19 18 17 17 17 17 17 18 18 18 18 19 19 19 19 19 19 19 18 18 17 17 16 16 15 14 13 13 13 12 12 12 12 12 12 12 12 11 11 11 12 12 13 14 14 15 15 15 15 16 16 16 16 16 16 16 16 16 16 17
18 17 18 19 22 23 23 23 23 22 23 23 24 24 24 24 24 24 24 23 22 22 21 21 21 20 20 20 19 19 19 19 19 19 19 19 19 19 19 19 19 18 18 17 17 16 16 15 15 15 14 14 13 13 13 13 13 13 13 13 13 13 12 12 12 12 13 13 14 15 15 16 16 16 16 16 16 16 17 17 18 18 17 17 18
20 18 17 18 19 21 22 21 19 19 19 21 22 23 23 24 24 24 24 23 23 23 22 21 21 21 22 22 22 21 21 20 20 19 19 19 19 19 19 19 19 18 17 17 16 15 15 14 14 14 14 14 14 14 14 13 13 13 13 14 14 14 14 13 13 13 13 14 14 14 15 15 16 16 17 17 17 17 18 19 19 20 19 19 19
22 20 19 18 18 19 20 19 18 17 17 19 21 23 23 23 22 22 23 23 23 22 21 21 21 22 22 23 23 23 22 21 20 19 19 19 18 18 18 18 18 18 17 17 16 16 15 15 14 14 14 14 14 14 15 15 15 15 14 14 14 15 15 15 14 14 14 14 14 14 14 15 15 16 17 18 18 19 20 20 21 21 21 20 19
25 24 22 21 20 19 19 18 18 17 17 18 19 20 21 20 19 20 21 20 20 20 20 20 20 20 21 21 22 22 21 20 19 19 18 18 18 18 17 17 17 17 17 17 17 16 16 16 15 15 15 15 15 15 15 16 16 16 16 16 15 15 15 15 15 15 15 15 14 14 15 15 15 16 17 18 19 20 21 21 22 22 22 21 20
29 28 26 24 22 21 20 20 19 18 18 17 17 17 17 17 17 18 18 18 18 18 18 19 19 18 17 18 19 19 19 18 18 17 17 17 17 17 16 16 17 17 17 17 17 17 17 17 16 16 16 16 16 16 16 17 17 18 18 18 17 17 16 16 16 15 15 15 15 15 15 15 16 17 18 19 20 21 21 21 21 21 21 21 20
32 31 29 27 26 24 23 22 21 20 19 18 17 16 15 15 16 16 16 15 15 15 15 16 16 15 14 14 15 15 15 15 16 16 15 16 16 15 15 16 16 17 18 18 18 18 18 18 18 18 18 17 17 17 17 17 18 19 19 19 19 18 18 17 17 16 16 16 16 16 16 16 17 18 19 20 22 22 22 21 21 20 20 20 19
35 34 32 30 29 28 26 24 23 21 20 19 18 16 15 15 14 14 13 12 12 13 14 14 13 12 12 11 11 11 10 12 13 14 14 14 14 15 15 15 16 17 18 18 19 19 19 19 19 19 19 19 18 18 18 18 19 19 19 19 20 20 19 19 18 17 16 16 16 17 17 17 18 19 20 21 23 24 23 22 21 19 19 19 18
39 36 34 33 32 31 29 27 25 23 22 21 20 19 18 16 14 13 12 11 12 13 14 12 11 11 10 9 8 7 7 9 11 12 12 12 13 14 14 15 16 17 18 18 19 19 19 19 20 20 20 20 20 19 19 19 20 20 19 19 20 21 21 20 19 18 17 16 16 17 18 19 20 22 23 23 24 24 23 21 20 19 19 19 18
42 39 37 35 35 33 31 29 28 26 25 23 23 22 21 19 16 14 13 13 14 14 13 12 12 11 11 9 7 6 6 8 10 10 10 10 11 13 14 15 16 17 17 17 18 19 19 20 20 21 21 21 21 21 20 20 21 20 20 19 20 21 21 21 20 19 17 16 16 17 19 20 22 23 25 25 25 23 21 20 19 19 19 19 19
45 43 40 38 37 36 35 33 30 28 27 26 25 24 23 21 19 17 16 16 15 14 14 14 14 13 12 10 9 8 7 7 8 9 9 9 10 11 13 14 15 16 16 16 17 18 18 19 20 20 21 22 22 21 21 22 23 22 22 21 22 22 22 22 23 22 19 18 19 20 22 23 24 24 25 25 23 21 19 19 20 20 21 21 20
47 45 43 42 41 40 39 37 34 32 30 28 27 26 24 23 21 20 19 18 17 16 15 15 15 14 14 13 12 10 8 7 9 9 9 9 10 11 13 13 14 14 14 14 15 15 16 17 18 19 20 21 22 22 22 23 24 24 24 23 24 24 23 23 25 25 24 23 24 25 25 24 24 24 23 22 20 19 20 21 21 22 22 22 21
50 48 46 44 44 43 42 40 38 36 34 32 30 27 26 24 22 22 21 20 19 18 18 17 17 17 17 16 14 12 9 10 11 11 10 10 11 12 12 12 13 13 13 13 13 14 14 15 16 17 19 20 21 21 22 24 25 25 24 23 24 24 22 22 26 28 27 27 27 27 25 23 23 22 21 21 21 22 22 22 23 23 23 22 22
52 50 49 47 46 45 44 43 41 39 37 36 32 28 26 25 24 23 23 22 21 20 20 20 19 19 19 18 16 14 12 12 13 13 12 11 12 13 13 13 13 13 12 12 13 13 14 15 15 16 17 18 19 21 22 24 25 25 24 24 24 22 20 21 26 28 28 28 28 27 25 23 22 23 23 24 24 25 25 23 23 23 22 21 21
53 53 51 50 48 47 46 45 43 42 40 37 34 30 27 26 25 25 25 24 23 22 22 22 21 21 21 20 18 17 15 15 15 15 13 13 13 13 13 14 14 13 12 13 14 14 15 15 16 17 17 18 19 20 22 25 26 25 25 25 24 22 20 21 25 26 26 27 27 26 25 24 24 25 25 26 26 26 25 23 22 22 21 20 20
52 53 55 54 52 50 48 47 45 44 42 39 35 32 30 28 28 28 27 26 25 24 24 23 23 23 22 21 21 19 17 17 17 16 15 14 15 14 15 15 14 13 13 13 14 15 15 15 16 18 19 19 20 20 22 25 26 26 25 25 24 22 20 22 25 26 25 26 26 26 24 23 23 25 25 25 25 25 23 22 21 21 21 20 20
54 58 60 59 58 55 52 50 48 46 45 42 39 35 32 31 30 31 30 28 27 26 26 25 24 24 23 23 22 20 18 17 18 17 16 16 15 16 16 16 14 13 14 15 15 16 16 16 16 18 19 21 22 22 22 24 26 27 26 25 24 22 21 23 25 26 26 26 26 25 23 22 21 22 22 23 23 23 22 21 21 21 21 21 23
60 65 65 63 62 60 56 53 51 50 48 45 42 39 35 32 31 32 32 30 29 28 27 26 25 24 24 24 22 20 18 17 18 19 18 17 17 17 18 17 15 14 15 15 16 17 17 16 16 17 19 21 23 23 23 24 26 27 27 26 24 23 22 23 24 25 26 26 26 24 22 21 20 20 20 20 21 21 21 22 22 22 23 24 26
62 66 69 67 64 61 59 57 55 54 52 49 46 43 38 34 33 34 34 32 30 29 28 27 26 24 24 25 23 21 19 18 18 19 20 19 19 19 19 18 16 16 16 16 17 18 18 18 17 17 19 21 22 23 24 24 26 28 28 26 25 25 24 23 23 24 24 25 25 23 21 20 19 19 18 18 19 20 21 22 23 24 26 27 27
62 64 69 70 65 60 59 59 59 57 55 52 49 46 42 38 36 36 36 34 32 31 29 28 26 25 24 24 24 23 21 20 19 20 21 21 21 20 20 20 18 17 17 18 18 19 19 19 18 18 20 22 23 24 25 25 26 28 28 27 26 26 25 24 23 23 24 24 23 22 20 19 18 18 16 17 18 20 21 22 23 25 26 27 27
67 67 69 69 65 61 58 59 61 62 59 56 53 49 45 42 40 39 39 37 35 34 32 29 27 25 23 23 24 24 24 23 22 22 23 23 22 22 22 22 20 19 20 20 20 20 20 19 19 20 22 23 23 25 26 25 25 27 28 28 28 27 27 26 24 25 24 22 20 20 18 16 16 15 15 17 20 22 23 24 25 26 27 28 28
68 69 70 68 66 63 60 60 61 64 63 59 55 53 49 46 44 42 42 41 40 39 37 34 31 28 24 23 23 24 25 26 26 25 25 24 23 23 23 23 22 22 23 23 21 19 19 19 20 22 24 24 24 25 26 26 26 27 27 28 29 29 28 27 26 26 24 20 18 17 15 13 12 13 17 21 25 26 27 27 28 28 29 29 29
67 66 69 71 68 65 64 63 62 63 64 62 59 56 53 50 48 46 45 45 44 43 41 39 37 34 30 26 24 24 27 29 30 30 28 26 23 23 24 26 26 26 25 24 22 20 19 20 22 24 26 27 25 25 26 26 26 27 27 28 29 29 30 29 28 28 25 19 16 14 11 10 11 14 20 26 29 31 31 32 31 31 30 30 30
74 68 68 71 71 68 67 68 65 64 65 64 62 59 56 54 53 51 49 48 48 47 45 42 41 40 37 32 29 28 30 33 34 33 31 27 25 24 26 28 29 29 27 25 23 21 21 23 25 27 29 29 28 27 26 26 27 27 27 28 29 30 31 30 30 29 26 20 16 13 11 11 13 17 23 29 32 33 34 35 35 33 32 32 33
79 75 71 70 71 70 70 71 69 66 66 66 65 62 59 57 55 54 53 51 50 51 49 47 45 43 40 37 34 33 35 36 36 34 32 30 27 26 27 28 30 30 28 26 24 23 24 25 27 29 30 31 30 29 27 26 27 27 28 28 29 31 32 31 28 27 25 22 20 18 16 16 18 22 26 31 33 34 35 37 37 36 36 36 38
79 79 76 73 73 74 74 73 71 69 67 68 68 65 62 59 57 55 56 55 54 53 53 51 49 46 42 40 38 37 38 38 36 35 35 33 30 28 29 29 30 29 28 26 25 25 26 26 26 27 29 30 31 30 27 26 27 28 28 29 30 31 32 30 26 23 23 23 24 25 24 24 26 27 29 32 33 34 35 38 39 39 40 41 41
81 80 79 77 76 77 77 76 75 72 69 68 69 67 65 62 58 57 57 57 57 56 54 54 53 49 45 42 40 39 39 38 37 37 37 35 33 32 31 30 28 28 27 26 26 28 29 26 24 25 27 28 29 29 27 26 28 29 29 29 29 30 31 29 25 22 22 24 27 29 30 30 30 30 30 30 32 33 35 37 39 41 42 42 43
85 85 83 82 80 81 81 80 79 76 72 70 70 69 67 63 60 58 57 58 59 58 55 54 54 51 47 44 42 40 40 39 39 38 37 36 35 34 33 31 29 28 27 27 28 31 31 28 25 24 25 27 28 28 28 28 29 30 29 28 28 30 30 29 25 23 23 24 27 30 32 33 32 30 28 28 30 32 34 36 39 40 41 42 43
88 88 88 87 86 85 85 85 84 80 75 71 70 71 69 66 63 61 59 58 59 59 58 56 54 52 49 46 43 41 41 41 41 40 38 37 36 35 34 32 30 29 29 30 32 33 33 30 28 26 25 26 27 28 28 29 30 30 29 27 28 29 30 30 29 27 24 24 26 30 33 34 33 30 28 28 31 32 33 36 37 38 40 42 41
91 91 92 91 90 89 88 87 86 83 79 75 72 72 72 69 66 65 62 59 59 60 60 59 56 53 50 47 45 43 43 43 43 42 40 38 37 36 34 33 32 31 32 33 34 35 34 32 31 29 27 26 27 28 29 30 31 31 29 27 27 29 32 32 31 30 28 28 29 31 32 34 35 33 32 32 32 32 33 35 35 37 39 40 40
97 96 96 95 93 92 90 89 88 86 83 80 76 74 73 72 70 68 66 63 61 61 62 61 59 55 52 49 47 46 45 46 45 43 42 40 37 36 36 35 34 34 34 35 36 37 35 33 33 32 31 30 29 29 28 29 31 32 31 28 27 30 34 36 33 31 31 32 33 32 34 36 37 36 36 36 33 31 33 34 34 37 37 35 37
103 101 99 99 97 95 93 92 91 89 86 84 80 77 75 73 72 71 69 66 63 62 62 62 61 57 53 51 49 49 49 48 46 45 43 41 39 38 38 39 39 39 38 38 38 37 35 34 34 34 34 34 34 33 31 30 31 33 33 31 29 31 35 35 32 32 34 35 34 33 35 37 38 38 40 40 36 32 33 35 36 38 36 32 36
108 105 103 102 101 99 97 94 92 90 88 87 84 80 77 76 74 73 71 68 65 64 63 63 62 58 55 53 52 52 51 50 48 46 44 42 41 41 41 41 42 42 40 39 40 39 38 37 36 36 37 37 37 37 35 33 33 34 35 35 34 34 35 34 32 33 36 37 36 35 37 39 41 42 43 43 39 36 36 38 39 40 38 37 40
112 110 107 104 103 102 101 98 95 92 91 89 86 82 80 78 76 75 73 70 68 66 64 64 64 61 58 57 56 55 54 52 50 48 45 43 42 43 44 44 44 43 42 41 40 39 39 41 40 39 38 37 35 34 35 36 37 37 37 38 39 39 38 37 35 35 37 39 39 40 40 41 42 43 43 42 40 39 42 43 41 41 41 42 40
114 112 110 107 105 104 103 102 99 96 94 92 89 85 83 81 80 79 77 75 73 71 69 68 67 66 65 63 61 58 56 54 52 49 47 44 44 45 46 46 46 46 45 42 39 40 42 44 43 41 39 35 34 36 40 43 42 40 40 40 41 42 42 41 38 37 38 40 41 42 43 43 43 44 45 43 41 42 45 44 41 40 43 42 37
116 114 112 110 108 106 105 104 103 101 99 98 95 91 88 86 84 83 81 80 78 76 75 74 73 72 71 70 67 63 59 56 54 52 49 47 46 46 48 48 48 47 45 41 41 43 45 43 42 41 39 37 38 43 48 48 46 43 42 42 42 43 44 44 42 40 40 41 42 43 44 46 47 47 47 45 43 43 44 41 39 40 44 43 39
119 116 114 112 111 109 108 106 105 104 103 102 100 97 93 90 88 86 84 83 81 80 78 76 75 75 75 74 72 69 65 60 57 55 52 49 48 49 49 49 48 47 44 42 44 48 47 42 41 42 42 43 46 49 51 51 49 47 45 44 44 45 46 47 46 45 43 42 42 43 44 46 47 48 48 47 46 44 42 38 37 41 47 48 45
121 120 117 115 113 112 111 109 108 107 105 103 101 99 96 94 91 90 88 86 84 83 81 79 78 77 77 76 75 73 69 65 62 59 55 52 52 53 53 51 48 46 44 44 45 48 46 43 42 43 46 48 50 50 50 51 52 50 49 48 47 46 47 48 49 49 48 45 45 46 46 46 48 49 51 51 49 45 41 39 37 40 46 49 47
123 122 120 118 115 113 112 111 109 108 107 106 104 101 99 97 95 93 92 90 88 86 85 83 82 81 79 78 76 75 72 70 67 63 59 56 55 56 56 54 51 49 47 47 47 48 48 47 48 49 50 51 51 50 51 54 54 54 52 51 50 50 50 49 50 51 51 50 49 49 50 50 52 54 55 54 51 48 46 45 43 42 44 46 46
123 122 121 120 118 115 113 111 110 108 108 107 106 104 103 101 99 98 96 95 93 91 89 87 86 84 82 80 79 77 75 73 71 68 64 61 59 59 58 57 55 53 52 52 54 54 54 55 56 56 55 55 54 53 54 56 58 58 55 52 51 52 53 52 51 52 53 53 52 51 52 53 55 55 54 52 51 51 52 52 49 46 45 46 49
123 122 121 121 119 118 117 115 112 110 109 108 107 106 104 103 102 101 100 99 97 95 93 91 89 87 85 83 82 80 78 76 74 72 69 66 64 62 61 59 58 58 57 57 59 61 62 62 62 61 61 60 60 59 59 60 61 61 59 55 53 53 55 55 53 53 55 56 56 56 56 56 56 55 52 49 48 48 48 50 51 52 52 51 49
124 124 123 121 121 120 120 118 117 114 112 110 109 107 106 104 103 102 101 100 99 97 96 94 91 89 87 85 84 82 80 78 77 75 73 70 68 66 64 62 61 61 61 61 62 63 64 64 64 64 63 61 61 61 60 62 64 63 60 57 55 54 55 55 55 56 58 59 60 60 60 59 58 58 58 57 55 53 52 52 56 59 59 56 53
125 125 124 123 123 122 121 121 120 118 115 113 111 110 108 106 104 102 101 99 98 97 96 94 92 90 88 87 85 84 83 81 79 77 76 74 73 70 67 64 62 62 64 64 64 64 63 63 62 60 57 57 60 61 60 61 65 66 63 60 58 56 54 54 56 58 60 60 60 60 59 58 58 60 62 63 64 63 62 61 62 65 65 62 61
126 126 126 126 125 124 123 123 121 120 117 115 114 112 111 108 106 104 102 100 98 96 95 94 92 90 89 88 87 86 85 83 81 79 78 78 76 73 68 65 63 64 65 66 65 64 62 60 57 53 50 52 58 61 62 63 65 66 65 63 61 57 54 54 55 57 59 60 61 62 63 64 65 66 66 66 66 67 68 69 70 70 70 69 68
128 127 127 127 127 126 125 124 123 121 119 117 115 114 113 111 109 107 106 104 102 100 98 96 94 93 91 90 89 88 86 85 84 82 81 80 79 76 70 66 65 65 66 66 64 61 58 56 53 50 48 51 56 60 62 64 66 66 67 67 64 60 59 58 59 62 64 66 67 70 71 71 70 68 67 66 66 67 69 70 70 69 70 71 72
130 128 128 128 127 127 126 125 123 122 121 119 117 115 114 112 111 110 109 109 107 105 103 100 98 96 94 93 91 90 88 87 87 86 84 83 82 79 74 69 66 66 67 67 64 59 55 53 51 48 48 51 56 60 61 60 60 61 63 64 63 61 61 62 64 68 70 70 70 71 70 69 68 67 65 64 63 62 62 64 67 69 72 74 75
132 130 130 129 128 127 126 125 124 124 123 122 120 117 116 114 113 112 112 111 110 108 106 104 102 99 97 95 93 92 90 89 89 88 87 86 85 82 77 71 67 67 68 68 64 59 55 50 48 47 47 50 56 59 59 58 59 62 64 62 59 56 55 57 62 69 72 71 69 67 66 66 66 64 60 58 60 61 62 63 67 70 73 75 76
Wind_Direction
234 230 224 220 218 215 214 215 217 220 221 221 221 222 224 227 230 235 239 242 243 243 245 250 256 265 274 284 292 300 308 315 322 328 334 339 341 343 345 346 348 350 352 355 358 0 3 5 7 8 10 11 10 9 10 13 16 15 13 11 11 12 12 13 14 14 15 16 17 17 16 15 15 14 13 10 5 1 355 350 348 351 353 353 353
234 234 230 223 220 219 217 216 216 217 218 221 224 225 226 229 232 235 240 244 248 251 251 252 254 259 267 274 283 289 295 302 308 315 321 326 331 334 336 338 340 342 345 347 350 353 355 358 360 0 2 3 2 1 1 4 8 9 8 6 6 7 7 7 8 9 10 11 11 11 10 9 8 7 7 4 1 358 354 348 344 345 346 345 345
230 232 233 230 224 221 221 220 219 218 217 219 222 224 226 229 232 235 239 243 249 253 256 257 258 260 264 270 276 282 288 293 299 306 312 318 322 325 328 331 333 335 337 340 342 345 347 350 352 354 355 355 355 355 354 356 359 0 360 360 -0 1 2 3 3 4 5 6 6 6 5 4 2 360 358 357 355 353 351 348 342 340 340 340 340
227 227 231 234 232 227 224 224 224 223 221 222 224 225 226 228 231 233 237 241 245 250 255 259 261 263 266 269 274 279 283 289 294 300 306 311 315 318 321 324 326 328 330 333 335 337 339 342 344 346 348 349 350 350 349 350 352 353 352 352 352 353 355 357 357 358 359 0 1 2 1 359 356 354 351 349 349 348 345 343 340 336 335 335 335
228 225 226 230 233 233 230 228 228 227 226 226 228 228 229 231 232 233 236 239 242 246 251 257 262 265 268 270 273 277 281 285 290 294 300 305 309 312 315 317 319 321 323 325 327 329 331 334 336 339 341 343 344 344 344 345 346 347 346 345 345 346 347 349 350 350 351 352 354 354 355 354 351 348 346 344 343 342 340 338 335 332 330 329 329
228 228 224 224 229 233 235 233 231 230 229 229 231 231 232 235 236 238 240 242 244 246 249 253 259 265 269 271 273 274 277 280 284 289 294 299 303 306 309 311 313 315 316 318 319 321 323 326 328 331 333 335 336 337 338 339 340 341 341 340 340 341 342 343 344 345 345 346 347 348 348 348 346 343 341 339 338 337 335 333 332 329 328 327 325
228 228 227 224 224 228 233 235 234 232 230 229 231 232 233 234 236 239 243 245 247 250 251 252 255 260 265 269 271 272 273 276 280 284 288 292 296 300 302 305 307 308 310 310 311 313 315 317 320 322 324 326 328 330 331 332 334 334 334 335 335 336 337 338 339 340 341 341 342 343 343 343 341 338 336 334 333 332 331 330 330 329 328 326 323
229 229 229 228 225 224 227 230 232 231 229 228 229 231 233 235 235 237 241 245 249 253 254 255 255 256 260 264 267 270 272 274 276 280 283 287 290 293 296 299 302 303 304 305 306 308 310 312 314 315 317 319 321 323 325 326 326 327 328 328 329 330 331 332 334 336 337 337 337 339 339 338 336 333 330 328 327 327 329 330 329 330 329 327 324
226 227 228 227 226 225 224 225 226 227 227 226 225 227 230 235 238 239 242 245 249 254 257 258 258 258 258 260 263 267 270 273 275 278 281 284 287 290 293 296 299 300 301 303 305 306 308 309 310 311 313 314 316 318 319 320 321 321 322 322 323 324 325 326 328 330 331 331 331 332 332 331 329 326 324 323 322 324 328 331 331 330 329 328 327
222 223 225 225 226 225 224 224 223 224 225 225 224 224 225 229 233 237 241 245 249 252 255 258 259 261 262 263 263 266 269 271 274 277 279 282 285 288 292 295 297 298 300 302 304 305 306 308 309 310 311 313 314 315 316 316 317 318 318 318 319 320 320 321 322 324 324 324 325 325 325 323 321 320 319 319 319 322 327 331 332 331 329 328 328
220 221 222 223 224 224 223 223 223 224 226 227 227 225 221 219 222 226 233 240 245 251 255 257 260 265 268 267 266 267 269 271 274 276 278 281 284 288 291 294 295 297 299 301 302 303 304 306 307 308 309 310 311 312 313 313 314 315 315 315 316 317 316 317 318 318 317 318 318 318 318 317 316 316 316 317 319 323 328 331 332 331 329 328 328
219 220 220 221 222 222 221 221 222 224 226 230 233 233 229 223 217 215 218 225 234 244 249 253 259 264 268 269 269 270 273 273 274 276 278 281 284 288 292 293 294 296 297 299 299 300 301 302 303 303 303 303 304 307 310 310 309 310 312 314 315 315 314 314 314 313 313 314 314 314 315 315 314 314 316 318 321 326 330 332 332 330 327 326 328
220 220 220 221 222 223 221 220 220 221 223 227 232 236 238 236 228 219 213 212 219 230 238 246 253 258 263 265 267 270 270 269 271 273 277 281 285 288 291 292 293 293 294 296 297 298 299 299 298 298 297 296 297 299 302 306 307 306 307 309 312 313 314 314 312 310 310 311 312 313 314 315 314 314 316 319 323 327 330 332 331 329 325 324 326
222 221 222 223 225 225 224 223 220 218 218 221 226 231 235 239 239 234 226 220 221 226 232 239 245 249 254 258 259 257 255 258 265 271 274 278 283 287 288 288 289 290 292 295 296 297 298 298 298 298 297 296 296 294 296 298 300 301 302 304 306 309 313 315 312 308 309 311 313 314 314 313 312 312 314 318 323 327 330 332 331 327 323 322 325
225 224 223 225 227 228 228 227 224 222 220 220 222 225 229 232 235 236 234 231 230 230 232 236 241 246 250 253 254 251 245 249 258 264 268 274 278 280 281 282 285 289 292 294 295 296 299 301 302 303 302 301 301 299 297 294 293 294 295 296 298 301 306 311 310 306 306 309 311 311 310 310 310 311 313 318 324 328 331 332 330 326 322 321 322
227 227 226 227 228 230 231 230 229 228 226 224 222 223 224 226 229 232 233 234 234 233 234 237 242 246 249 249 250 247 244 247 254 257 262 266 268 270 273 279 285 289 294 297 300 303 304 305 308 308 307 308 309 308 304 299 297 297 297 296 296 297 300 303 303 300 300 303 304 304 305 306 307 310 315 319 324 327 329 330 326 323 321 319 319
227 228 229 229 229 232 234 234 232 232 232 230 226 223 222 222 224 228 231 232 233 235 235 237 240 243 246 248 250 250 248 249 254 256 258 259 262 267 273 279 285 291 299 306 309 310 309 310 312 313 314 315 316 314 310 307 307 309 309 307 303 303 304 300 294 293 296 299 300 300 303 304 305 309 314 317 320 321 323 324 322 320 319 317 316
227 228 229 230 230 232 235 236 235 235 235 234 231 227 224 223 223 225 229 230 232 233 235 237 238 240 245 249 252 252 249 249 253 256 258 261 264 268 275 280 284 293 305 311 310 308 309 313 316 317 319 319 319 317 315 314 319 321 320 316 313 315 312 298 290 292 297 298 299 301 302 302 301 304 307 310 312 314 316 318 318 317 315 314 314
227 228 229 230 231 232 234 236 236 236 236 235 234 231 229 228 227 228 229 229 230 231 233 236 237 239 243 247 250 251 250 250 253 256 259 262 266 269 275 280 285 295 304 305 304 305 309 314 317 317 319 320 321 320 318 319 325 328 326 322 322 324 319 301 294 296 298 298 301 303 304 304 303 303 305 307 308 309 311 314 315 313 312 312 312
229 232 231 230 230 231 232 234 236 236 236 235 233 231 231 231 230 229 229 230 231 231 232 235 237 239 241 243 246 248 249 250 254 257 259 261 265 270 275 278 285 293 297 297 299 302 307 311 313 315 317 318 320 322 322 322 326 331 332 329 327 326 318 306 302 303 304 304 305 306 307 308 307 306 307 307 307 307 308 310 310 308 307 308 308
230 232 232 231 230 229 230 232 234 235 235 234 231 230 231 232 231 229 228 229 231 233 235 236 238 240 242 243 244 246 247 250 254 258 260 261 264 268 272 278 284 289 290 291 294 298 302 305 309 311 314 314 317 321 322 322 325 332 337 335 330 324 316 308 306 308 309 309 309 310 312 313 310 308 308 307 305 305 305 305 305 304 302 302 304
228 231 231 229 228 228 227 229 231 233 235 234 232 231 231 231 231 229 227 227 230 233 236 238 240 243 245 248 249 248 247 248 252 257 260 261 263 266 271 277 281 283 284 287 290 293 295 299 303 306 307 309 312 316 318 319 322 330 337 338 332 326 319 313 309 309 309 310 312 314 317 316 313 311 310 307 305 303 302 302 301 300 299 300 302
224 229 230 229 227 227 227 227 229 231 233 234 234 234 232 232 232 229 227 226 227 230 235 238 240 243 247 251 254 255 253 250 251 255 259 260 262 266 271 276 277 279 282 283 285 287 289 293 298 300 300 303 306 309 312 315 320 326 333 336 334 330 326 319 312 308 307 308 311 313 314 314 312 311 312 312 312 308 305 302 301 299 299 300 302
219 223 227 228 228 227 227 227 228 230 231 231 233 234 234 233 232 228 226 226 227 229 232 236 239 241 245 251 256 258 259 257 255 255 257 259 262 267 272 275 277 279 281 281 281 283 287 291 294 294 295 297 300 303 306 311 317 321 327 331 332 331 329 323 316 308 304 305 307 308 309 309 308 310 316 321 322 320 315 310 306 303 303 304 305
221 223 225 228 229 229 229 230 230 230 230 230 231 233 234 234 234 230 227 227 228 229 231 234 239 241 242 246 252 257 259 260 259 258 258 259 262 266 270 274 278 280 280 280 281 284 289 292 292 290 290 292 295 298 302 307 313 316 321 326 327 327 327 324 317 308 302 302 302 301 301 303 305 312 327 334 334 331 326 320 315 313 312 312 311
222 225 226 226 228 229 230 232 232 231 230 230 230 231 232 234 235 233 230 229 229 230 231 233 238 242 244 247 251 255 258 259 259 259 260 261 263 266 268 271 274 277 278 281 285 289 291 291 287 285 285 287 290 294 297 302 307 311 316 320 322 322 323 321 316 307 300 297 296 294 295 299 307 325 339 341 339 337 332 325 321 319 318 317 317
219 222 224 225 226 227 228 231 232 232 231 230 230 230 231 233 235 235 234 232 231 231 232 234 238 243 246 250 255 260 260 259 258 258 260 262 264 267 268 269 270 272 277 283 289 292 291 288 283 283 285 287 288 289 291 296 302 306 311 314 316 317 316 316 314 309 303 297 293 296 300 305 317 333 338 335 334 334 330 325 321 319 318 319 320
217 219 222 224 224 225 226 228 231 232 232 231 230 231 231 232 234 235 235 235 234 234 234 235 238 242 245 249 256 261 262 260 259 259 262 264 266 266 268 270 271 273 278 285 291 293 291 287 285 286 289 291 291 291 291 293 297 301 305 308 310 309 309 311 314 316 314 306 300 305 314 315 321 329 329 326 325 325 323 321 319 316 315 317 319
217 218 220 222 223 224 225 226 229 231 231 230 230 231 232 233 234 235 235 236 236 236 236 237 239 241 244 248 253 258 261 261 262 264 266 268 268 268 269 271 273 275 279 285 291 293 291 289 289 291 292 293 294 296 296 294 295 298 300 301 302 302 304 310 318 323 322 314 306 307 311 310 313 318 317 315 316 316 316 315 314 313 313 314 316
218 218 220 222 223 225 225 226 228 231 232 231 229 230 232 233 235 235 236 236 236 236 237 238 240 242 245 248 252 256 258 262 266 268 269 271 272 272 271 272 276 279 280 282 286 288 287 288 293 297 299 298 298 300 301 297 294 294 295 295 296 298 302 309 318 324 322 314 308 307 306 305 306 308 307 307 308 308 310 310 310 311 313 314 316
219 219 221 222 224 226 226 227 228 229 231 231 230 229 231 233 234 236 237 237 236 236 237 238 240 243 246 248 251 254 256 260 264 267 269 271 274 275 275 277 280 282 282 281 281 281 281 284 289 297 303 304 302 303 304 299 292 290 290 291 293 296 300 305 312 317 314 307 303 303 303 302 301 300 300 301 303 305 307 307 308 311 314 314 316
219 220 221 222 223 225 227 227 228 228 230 232 230 229 231 233 234 235 237 237 236 236 238 239 240 243 246 248 250 252 255 258 260 263 267 270 273 276 279 281 282 283 282 279 276 276 279 282 286 294 304 307 306 305 302 296 290 288 290 291 292 294 296 298 302 307 307 303 301 299 298 298 297 297 297 301 304 306 307 306 308 313 316 315 316
218 221 222 222 222 224 226 227 228 228 229 231 231 229 230 232 233 234 237 238 236 236 238 240 241 242 245 247 249 251 254 256 258 261 265 267 269 273 277 280 281 281 278 275 275 277 280 283 287 293 301 308 309 307 300 291 286 286 289 290 289 289 290 291 293 296 297 296 297 298 298 297 294 292 296 304 309 309 309 311 315 318 317 317 318
218 221 223 224 223 223 225 227 228 229 229 230 231 230 230 231 233 234 236 238 237 237 239 240 241 243 244 246 248 251 253 255 256 259 262 264 267 271 274 276 277 277 275 274 274 277 281 285 287 291 296 302 305 305 300 291 284 282 285 288 287 286 284 284 287 291 291 289 291 295 298 295 291 289 295 303 309 312 315 319 321 321 321 321 322
222 223 224 225 225 224 224 226 228 229 230 231 231 230 229 231 233 234 236 237 238 239 240 241 242 243 244 245 248 251 253 254 256 258 260 263 267 272 275 276 274 272 271 271 272 275 281 286 287 287 289 292 294 296 296 292 285 282 284 286 285 282 282 283 286 289 287 286 289 295 297 294 290 291 297 301 304 313 321 323 322 324 327 325 316
224 224 224 226 226 225 224 225 227 229 230 230 231 230 230 231 233 234 236 237 239 240 241 242 242 242 243 246 248 250 252 254 255 258 260 263 267 272 276 277 276 275 274 274 275 279 283 285 285 286 287 287 287 288 289 287 283 282 285 286 284 282 283 285 285 284 283 285 289 293 296 294 290 291 298 301 299 306 319 325 324 324 324 316 305
225 225 225 225 226 226 225 225 227 228 229 230 230 231 231 232 233 234 235 236 238 239 240 241 242 242 243 246 248 250 251 253 254 257 260 264 268 273 276 278 278 278 279 282 284 285 286 286 288 290 291 289 287 286 286 286 284 283 285 286 284 282 283 283 281 277 278 282 285 287 291 294 289 287 294 301 299 300 309 319 321 321 317 310 306
224 225 225 225 226 226 226 226 227 228 229 230 230 230 231 232 233 233 234 234 235 237 239 241 242 242 244 246 249 250 251 253 255 257 260 264 268 271 273 276 278 277 279 284 287 287 288 291 292 292 292 290 287 287 290 292 292 289 288 286 283 281 280 279 276 273 275 279 282 284 289 293 290 286 291 299 300 298 302 308 313 316 315 313 311
223 224 225 226 226 226 226 227 227 228 229 230 230 230 231 232 233 234 234 234 235 237 239 241 243 244 245 247 249 250 252 253 255 257 259 262 266 269 272 277 279 277 275 277 282 285 288 292 291 289 287 282 281 289 298 299 297 295 294 289 283 279 278 279 276 273 272 275 279 282 286 290 290 288 290 294 297 298 299 303 309 312 312 312 310
223 224 225 226 226 226 226 227 228 229 229 230 231 232 232 232 233 234 234 235 236 238 240 242 243 245 247 249 250 251 253 255 256 257 259 261 265 268 271 274 277 275 271 273 279 282 283 285 284 282 279 277 281 292 300 300 297 296 296 292 285 279 278 279 279 276 272 272 274 279 283 286 288 288 289 291 295 295 294 297 302 303 301 303 302
223 223 224 225 226 227 227 227 227 228 229 230 231 232 232 233 233 234 235 236 237 239 241 242 243 245 247 249 250 251 253 255 257 258 259 261 264 266 268 270 274 273 267 269 277 280 278 277 276 274 274 279 286 293 297 297 295 294 294 293 291 285 281 279 279 279 276 272 271 274 279 282 285 287 288 291 293 290 288 293 298 295 291 293 296
222 223 223 224 225 226 227 227 227 228 228 229 230 231 232 233 233 234 235 236 238 240 242 243 244 245 247 249 250 251 253 255 257 258 259 260 262 265 266 268 271 270 264 265 272 276 276 275 275 274 276 283 289 294 295 294 293 292 292 293 293 290 286 281 279 280 280 276 273 275 279 283 285 285 287 289 290 287 287 291 292 286 284 288 292
222 222 223 223 224 225 226 227 227 228 229 230 230 231 232 233 234 234 235 236 238 240 242 243 244 246 248 250 251 252 253 254 256 257 258 259 260 263 265 266 269 269 265 264 267 271 272 274 275 276 280 284 289 294 295 293 292 291 292 291 290 289 288 285 281 279 279 277 275 275 278 281 282 281 283 286 286 284 284 286 286 282 280 282 285
223 223 223 223 224 224 225 227 227 228 229 230 231 232 233 234 234 235 236 237 239 241 242 243 244 246 248 249 251 252 253 254 256 257 258 258 259 261 263 265 267 268 267 265 265 267 269 271 272 275 280 283 287 290 292 291 290 289 288 287 286 287 289 289 285 281 277 274 273 276 279 282 282 283 284 286 285 282 281 280 280 282 283 282 282
224 224 224 224 224 224 225 226 227 228 229 230 232 233 234 234 235 236 237 238 239 241 242 243 244 245 247 249 251 252 253 255 256 257 258 259 259 260 262 264 266 268 268 267 267 268 270 272 274 276 280 282 284 286 288 288 287 287 286 286 285 285 287 288 286 282 279 276 276 279 282 283 284 284 285 286 286 286 284 280 278 282 288 289 285
223 224 225 225 225 226 226 227 228 228 229 230 232 233 234 235 236 237 238 239 240 241 242 243 244 245 247 249 250 252 253 254 256 257 258 258 259 260 262 264 266 269 271 271 271 270 272 273 275 276 279 281 282 283 285 287 286 286 286 285 283 284 284 283 281 281 281 281 280 281 282 282 282 281 281 280 280 282 284 283 282 285 288 287 281
222 224 225 226 226 227 227 228 228 229 229 230 231 233 234 235 236 237 238 239 240 241 241 242 244 245 247 248 250 251 253 254 255 257 258 259 259 260 261 264 266 269 271 272 273 272 272 273 274 276 279 281 281 281 283 283 283 282 282 281 280 279 278 277 277 278 279 280 281 281 281 281 282 282 280 279 279 279 280 282 283 285 286 284 280
221 222 224 225 226 227 227 228 229 229 230 230 231 232 234 235 236 237 238 239 240 241 242 242 244 246 248 249 250 251 253 254 255 256 257 258 259 260 261 264 265 267 268 270 272 273 273 275 276 277 277 276 275 276 277 277 277 277 277 277 277 276 273 272 274 277 278 279 280 281 280 281 282 282 280 279 278 277 277 279 281 282 283 283 283
223 222 223 224 225 226 227 228 229 230 230 231 231 232 233 235 236 237 238 238 239 240 241 242 244 246 248 249 250 251 253 254 255 255 256 257 259 260 261 263 265 267 268 269 271 272 275 276 277 277 276 274 274 275 276 278 279 278 275 274 274 274 274 275 277 278 278 277 277 277 278 279 278 278 278 279 279 279 279 280 281 282 283 283 284
225 223 224 224 225 226 226 228 229 230 231 231 232 232 233 234 236 237 238 238 239 239 240 241 243 245 246 248 250 251 252 253 255 256 256 257 258 259 260 262 265 267 268 268 270 273 276 277 276 275 275 277 278 277 276 277 277 274 272 272 275 276 275 277 279 280 278 275 275 275 275 274 274 276 279 280 280 280 280 280 281 283 284 283 282
226 225 225 225 225 225 226 227 228 229 230 231 232 232 233 234 235 236 237 238 239 239 240 241 242 244 245 247 248 250 251 253 254 256 257 258 259 259 260 262 263 265 265 265 266 268 270 272 271 270 268 271 273 273 273 275 274 273 272 271 271 269 266 266 268 270 272 274 275 275 272 271 273 276 277 276 275 276 277 279 282 284 285 283 282
Height
10985 10986 10988 10990 10992 10993 10995 10997 10998 11000 11001 11002 11002 11003 11004 11005 11007 11008 11009 11010 11011 11012 11012 11013 11013 11014 11014 11015 11015 11015 11015 11015 11015 11014 11014 11013 11013 11012 11012 11011 11011 11010 11009 11009 11008 11008 11007 11007 11006 11006 11005 11005 11004 11004 11003 11002 11001 11001 11001 11000 11000 10999 10999 10998 10998 10998 10997 10996 10995 10995 10994 10993 10993 10992 10991 10990 10989 10988 10986 10984 10983 10981 10980 10979 10978
10984 10985 10986 10988 10990 10992 10993 10995 10996 10998 10999 11000 11001 11002 11003 11004 11005 11006 11008 11009 11009 11010 11011 11011 11012 11012 11013 11013 11014 11014 11014 11014 11014 11014 11013 11013 11013 11012 11012 11011 11010 11010 11009 11009 11008 11008 11007 11007 11006 11006 11005 11005 11004 11004 11003 11002 11001 11001 11001 11000 11000 10999 10999 10998 10998 10997 10997 10996 10996 10995 10994 10993 10992 10992 10991 10990 10989 10988 10986 10984 10982 10981 10980 10979 10977
10981 10983 10984 10985 10987 10990 10991 10992 10994 10995 10997 10998 10999 11000 11001 11002 11003 11005 11006 11006 11007 11008 11009 11009 11010 11010 11011 11011 11012 11012 11013 11013 11013 11013 11013 11012 11012 11012 11011 11011 11010 11009 11009 11008 11008 11007 11007 11006 11006 11006 11005 11005 11004 11004 11003 11002 11001 11001 11000 11000 11000 10999 10998 10998 10997 10997 10997 10996 10996 10995 10994 10993 10992 10991 10990 10989 10988 10987 10986 10984 10982 10980 10979 10978 10977
10979 10981 10982 10984 10985 10987 10988 10990 10991 10993 10995 10996 10997 10999 11000 11000 11001 11002 11003 11004 11005 11006 11007 11007 11008 11009 11009 11009 11010 11010 11010 11011 11011 11011 11011 11011 11011 11011 11010 11010 11010 11009 11008 11008 11007 11007 11006 11006 11006 11005 11005 11004 11004 11003 11003 11002 11001 11001 11000 11000 10999 10999 10998 10998 10997 10997 10996 10996 10995 10994 10994 10993 10992 10991 10989 10988 10987 10986 10985 10983 10982 10980 10979 10978 10977
10977 10979 10981 10982 10983 10984 10986 10987 10989 10991 10993 10994 10996 10997 10998 10999 11000 11000 11001 11002 11003 11004 11004 11005 11005 11006 11007 11007 11008 11008 11008 11009 11009 11009 11010 11010 11010 11009 11009 11009 11009 11008 11008 11007 11007 11006 11006 11005 11005 11004 11004 11004 11003 11003 11002 11002 11001 11000 11000 11000 10999 10999 10998 10998 10997 10997 10996 10995 10994 10994 10993 10992 10991 10990 10988 10987 10985 10984 10983 10982 10981 10979 10978 10977 10976
10975 10977 10979 10980 10981 10982 10984 10985 10986 10989 10991 10992 10994 10995 10997 10997 10998 10999 10999 11000 11001 11001 11002 11003 11003 11003 11004 11004 11005 11006 11006 11007 11007 11007 11008 11008 11008 11008 11008 11008 11007 11007 11007 11006 11006 11006 11005 11005 11004 11004 11003 11003 11002 11002 11001 11001 11000 11000 10999 10999 10998 10998 10997 10997 10997 10996 10996 10995 10994 10993 10992 10991 10989 10988 10987 10985 10984 10983 10981 10980 10979 10978 10976 10975 10974
10974 10976 10977 10978 10979 10981 10981 10982 10984 10986 10988 10990 10991 10993 10994 10995 10996 10997 10997 10998 10998 10999 11000 11001 11001 11002 11001 11002 11003 11003 11004 11004 11005 11005 11006 11006 11006 11006 11006 11006 11006 11006 11006 11005 11005 11005 11004 11004 11003 11003 11002 11002 11001 11001 11000 11000 10999 10999 10998 10998 10997 10997 10996 10996 10996 10995 10995 10994 10993 10992 10991 10990 10988 10987 10985 10984 10982 10981 10980 10978 10977 10976 10975 10974 10972
10972 10974 10975 10977 10978 10979 10980 10981 10982 10984 10986 10988 10989 10990 10991 10992 10994 10995 10995 10996 10996 10996 10997 10998 10999 11000 11000 11000 11000 11001 11001 11002 11003 11003 11004 11004 11004 11005 11005 11005 11005 11004 11004 11004 11004 11003 11003 11003 11002 11002 11001 11001 11000 11000 10999 10999 10998 10998 10997 10997 10996 10996 10995 10995 10994 10994 10993 10993 10992 10991 10990 10988 10987 10985 10984 10982 10981 10980 10978 10977 10975 10974 10973 10972 10971
10969 10971 10973 10974 10976 10978 10979 10980 10981 10982 10984 10985 10986 10988 10989 10990 10991 10993 10993 10994 10994 10995 10996 10996 10997 10997 10998 10998 10999 10999 10999 11000 11001 11001 11002 11002 11002 11003 11003 11003 11003 11003 11003 11002 11002 11002 11002 11001 11001 11000 11000 11000 10999 10999 10998 10998 10997 10996 10996 10996 10995 10995 10994 10994 10993 10992 10992 10991 10990 10989 10988 10987 10985 10984 10982 10981 10980 10978 10977 10976 10974 10972 10971 10970 10969
10966 10967 10969 10972 10974 10976 10977 10978 10980 10981 10982 10984 10985 10986 10988 10989 10990 10991 10992 10992 10993 10994 10994 10994 10995 10995 10996 10997 10997 10997 10998 10998 10999 11000 11000 11000 11001 11001 11001 11001 11001 11001 11001 11001 11000 11000 11000 11000 10999 10999 10999 10998 10998 10998 10997 10997 10996 10995 10995 10994 10994 10993 10993 10992 10992 10991 10990 10989 10988 10987 10986 10984 10983 10982 10980 10979 10978 10977 10976 10975 10973 10971 10969 10968 10966
10963 10964 10966 10969 10971 10972 10974 10976 10978 10979 10981 10982 10984 10985 10987 10988 10989 10990 10991 10991 10992 10993 10993 10993 10993 10994 10994 10995 10995 10996 10996 10997 10997 10998 10998 10999 10999 10999 10999 10999 10999 10999 10999 10999 10998 10998 10998 10998 10997 10997 10997 10997 10996 10996 10996 10995 10994 10994 10993 10992 10992 10991 10991 10990 10990 10989 10988 10987 10986 10985 10984 10982 10981 10979 10978 10977 10976 10975 10974 10973 10971 10970 10968 10966 10965
10960 10961 10963 10965 10967 10969 10971 10973 10975 10977 10979 10981 10982 10984 10985 10987 10988 10989 10990 10990 10991 10991 10991 10992 10992 10992 10993 10993 10994 10994 10995 10995 10996 10996 10996 10997 10997 10997 10998 10998 10997 10997 10997 10996 10996 10996 10996 10995 10995 10995 10995 10994 10994 10994 10994 10993 10993 10992 10992 10991 10990 10989 10989 10988 10987 10987 10986 10985 10984 10983 10981 10980 10978 10977 10976 10975 10974 10973 10972 10971 10969 10968 10966 10964 10963
10956 10958 10960 10962 10964 10966 10968 10970 10972 10974 10976 10978 10980 10982 10983 10985 10986 10988 10988 10989 10990 10990 10990 10990 10991 10991 10991 10992 10992 10993 10994 10994 10994 10994 10994 10995 10995 10995 10996 10995 10995 10995 10995 10994 10994 10993 10993 10993 10993 10992 10992 10992 10991 10992 10992 10991 10991 10990 10990 10990 10989 10988 10987 10986 10985 10984 10983 10983 10982 10980 10979 10978 10976 10974 10973 10972 10971 10970 10969 10968 10967 10965 10964 10962 10961
10953 10955 10957 10959 10961 10964 10966 10967 10968 10970 10973 10975 10977 10979 10980 10982 10984 10986 10987 10987 10988 10988 10989 10989 10989 10989 10990 10990 10991 10991 10992 10992 10992 10992 10992 10993 10993 10993 10993 10993 10993 10993 10992 10992 10992 10991 10991 10991 10990 10990 10989 10989 10989 10989 10989 10989 10988 10988 10988 10988 10987 10986 10986 10985 10983 10982 10981 10980 10980 10979 10977 10975 10974 10972 10970 10969 10969 10968 10967 10965 10964 10963 10961 10960 10959
10949 10952 10954 10956 10958 10960 10962 10964 10966 10968 10970 10971 10973 10975 10977 10979 10981 10983 10984 10985 10986 10986 10987 10987 10987 10988 10988 10988 10989 10989 10990 10990 10990 10990 10990 10991 10991 10991 10991 10991 10991 10991 10991 10990 10990 10990 10989 10988 10988 10987 10987 10986 10986 10986 10986 10985 10985 10985 10985 10985 10984 10984 10984 10983 10981 10980 10979 10979 10977 10976 10975 10973 10972 10970 10969 10967 10967 10966 10964 10963 10962 10960 10959 10958 10957
10946 10949 10951 10953 10955 10956 10958 10961 10963 10965 10967 10969 10970 10972 10974 10977 10979 10980 10981 10982 10983 10984 10985 10986 10986 10986 10986 10986 10986 10987 10988 10988 10988 10988 10989 10989 10989 10989 10989 10989 10989 10989 10989 10988 10988 10988 10987 10987 10986 10985 10985 10984 10984 10984 10983 10982 10982 10982 10982 10982 10981 10981 10981 10981 10979 10977 10977 10976 10975 10974 10973 10971 10969 10968 10967 10966 10965 10963 10962 10961 10960 10958 10957 10955 10954
10941 10944 10947 10949 10951 10952 10954 10957 10960 10962 10964 10966 10968 10970 10972 10974 10976 10977 10978 10979 10980 10981 10982 10983 10984 10984 10984 10984 10984 10985 10986 10986 10986 10986 10987 10987 10987 10986 10987 10987 10987 10987 10987 10987 10986 10986 10986 10985 10985 10984 10984 10983 10983 10982 10981 10980 10980 10979 10979 10979 10979 10978 10979 10978 10976 10974 10974 10973 10972 10971 10970 10969 10967 10966 10965 10964 10963 10961 10960 10959 10958 10956 10955 10953 10952
10936 10939 10942 10944 10946 10948 10950 10952 10955 10958 10960 10962 10965 10968 10970 10971 10973 10974 10975 10976 10977 10978 10979 10980 10981 10982 10982 10982 10983 10983 10984 10984 10983 10984 10984 10984 10984 10985 10985 10985 10985 10985 10985 10985 10984 10984 10984 10983 10983 10983 10983 10982 10982 10981 10980 10978 10978 10978 10977 10976 10976 10976 10977 10975 10972 10971 10970 10969 10968 10967 10967 10966 10965 10964 10963 10962 10961 10959 10958 10957 10956 10954 10952 10951 10950
10930 10933 10936 10939 10941 10944 10945 10947 10950 10953 10956 10958 10962 10965 10967 10969 10970 10971 10972 10973 10974 10975 10976 10977 10978 10979 10980 10980 10981 10981 10981 10981 10981 10981 10982 10982 10982 10982 10983 10983 10983 10983 10983 10983 10982 10982 10982 10981 10981 10981 10981 10981 10980 10979 10978 10977 10976 10976 10975 10974 10973 10973 10973 10972 10969 10968 10968 10966 10965 10964 10964 10963 10963 10962 10961 10960 10958 10957 10955 10954 10953 10951 10950 10949 10947
10928 10929 10930 10932 10935 10938 10940 10943 10945 10948 10950 10954 10957 10960 10962 10965 10967 10968 10968 10970 10971 10972 10973 10973 10974 10975 10976 10977 10978 10978 10978 10979 10978 10978 10979 10979 10979 10980 10980 10980 10980 10981 10981 10980 10980 10979 10979 10979 10979 10978 10978 10978 10978 10977 10976 10974 10973 10973 10973 10972 10970 10970 10969 10968 10966 10965 10964 10963 10962 10961 10961 10961 10960 10959 10958 10957 10956 10954 10952 10951 10950 10948 10947 10946 10945
10923 10919 10919 10923 10927 10931 10934 10937 10940 10942 10945 10948 10951 10954 10956 10959 10962 10963 10965 10966 10967 10968 10969 10970 10971 10972 10973 10974 10974 10975 10976 10976 10976 10976 10976 10977 10977 10977 10977 10977 10977 10978 10978 10977 10977 10977 10977 10977 10977 10977 10976 10975 10975 10975 10974 10972 10971 10971 10971 10970 10969 10968 10967 10965 10963 10961 10961 10960 10959 10959 10958 10958 10958 10957 10956 10955 10953 10951 10950 10949 10947 10946 10944 10943 10941
10910 10907 10909 10915 10920 10924 10929 10932 10934 10937 10939 10942 10946 10948 10951 10954 10957 10959 10960 10961 10963 10964 10966 10967 10968 10969 10970 10971 10971 10972 10973 10974 10973 10973 10973 10974 10974 10974 10974 10974 10974 10974 10974 10974 10974 10974 10974 10974 10974 10974 10974 10973 10972 10972 10971 10969 10968 10968 10968 10967 10966 10965 10964 10963 10961 10959 10958 10957 10956 10956 10955 10955 10954 10954 10953 10952 10950 10949 10947 10946 10945 10943 10942 10940 10938
10901 10901 10904 10908 10912 10918 10923 10926 10928 10930 10933 10937 10940 10943 10946 10949 10951 10954 10956 10957 10958 10959 10961 10963 10964 10966 10967 10968 10968 10970 10971 10971 10971 10970 10970 10970 10971 10971 10970 10970 10971 10971 10971 10971 10971 10971 10971 10971 10971 10971 10971 10970 10969 10968 10967 10967 10966 10965 10965 10964 10964 10963 10962 10961 10959 10958 10956 10955 10954 10953 10953 10952 10951 10950 10949 10948 10947 10946 10945 10943 10942 10940 10939 10937 10936
10892 10895 10898 10901 10906 10912 10917 10921 10924 10925 10927 10931 10934 10937 10941 10944 10946 10949 10951 10953 10954 10955 10956 10958 10960 10961 10962 10964 10965 10966 10967 10968 10968 10967 10967 10967 10967 10967 10967 10967 10967 10967 10967 10967 10967 10967 10967 10968 10968 10968 10968 10967 10966 10965 10964 10964 10963 10962 10961 10961 10961 10960 10959 10958 10957 10956 10954 10953 10952 10950 10950 10949 10948 10947 10946 10945 10945 10944 10942 10941 10939 10938 10936 10934 10933
10886 10889 10891 10896 10901 10906 10911 10915 10917 10920 10922 10926 10928 10931 10935 10938 10941 10944 10946 10948 10949 10950 10952 10954 10955 10956 10958 10959 10961 10962 10964 10964 10964 10963 10963 10963 10963 10964 10963 10963 10964 10964 10963 10963 10964 10964 10964 10965 10965 10965 10964 10963 10963 10961 10961 10961 10960 10959 10958 10958 10957 10956 10955 10954 10953 10952 10951 10950 10949 10948 10946 10946 10945 10944 10944 10943 10942 10941 10939 10938 10936 10935 10933 10931 10930
10880 10882 10885 10889 10894 10899 10903 10906 10909 10913 10917 10921 10923 10926 10929 10933 10936 10938 10941 10943 10944 10945 10947 10949 10951 10952 10954 10955 10957 10958 10960 10960 10960 10959 10959 10959 10959 10960 10960 10960 10960 10960 10959 10959 10960 10961 10961 10961 10961 10960 10960 10960 10960 10959 10958 10957 10957 10956 10955 10955 10953 10953 10952 10950 10949 10948 10947 10947 10946 10945 10944 10943 10943 10942 10941 10940 10939 10938 10937 10935 10933 10932 10930 10929 10928
10871 10874 10877 10881 10886 10890 10893 10897 10901 10905 10910 10915 10917 10920 10923 10927 10929 10932 10935 10937 10938 10940 10942 10944 10946 10948 10950 10951 10953 10955 10956 10956 10955 10955 10955 10955 10956 10956 10956 10956 10956 10956 10955 10955 10957 10958 10958 10957 10956 10956 10955 10955 10956 10956 10955 10954 10954 10953 10952 10952 10951 10949 10948 10947 10945 10944 10944 10944 10944 10943 10942 10942 10941 10940 10939 10938 10937 10936 10935 10933 10932 10930 10929 10927 10926
10861 10865 10868 10873 10878 10882 10885 10889 10893 10897 10902 10907 10911 10914 10917 10920 10923 10925 10928 10930 10932 10934 10936 10939 10941 10943 10945 10947 10949 10950 10951 10950 10950 10951 10952 10953 10954 10953 10953 10952 10952 10952 10952 10953 10954 10955 10954 10953 10952 10951 10951 10951 10951 10952 10952 10951 10951 10950 10949 10948 10947 10946 10944 10944 10942 10941 10942 10942 10942 10941 10940 10940 10939 10938 10937 10936 10935 10934 10933 10931 10929 10928 10927 10925 10923
10852 10857 10861 10865 10869 10873 10876 10880 10884 10889 10894 10898 10903 10907 10910 10913 10916 10919 10921 10923 10926 10928 10930 10933 10935 10938 10940 10943 10945 10946 10945 10945 10945 10947 10949 10949 10950 10950 10950 10949 10948 10948 10949 10950 10951 10951 10950 10949 10948 10947 10947 10947 10947 10947 10948 10948 10947 10946 10946 10945 10944 10942 10941 10941 10940 10939 10939 10939 10939 10938 10938 10937 10936 10935 10934 10933 10932 10931 10929 10927 10926 10925 10924 10922 10920
10845 10850 10854 10857 10861 10864 10867 10872 10876 10880 10885 10890 10895 10899 10903 10906 10910 10912 10914 10916 10919 10922 10925 10927 10929 10932 10936 10938 10940 10940 10940 10940 10943 10944 10944 10944 10946 10947 10947 10946 10946 10945 10946 10947 10948 10947 10945 10944 10944 10943 10943 10944 10943 10943 10944 10945 10944 10943 10941 10941 10939 10938 10937 10937 10937 10937 10936 10936 10935 10934 10934 10934 10933 10932 10931 10930 10928 10927 10925 10923 10922 10921 10919 10918 10916
10837 10841 10845 10849 10852 10855 10859 10863 10867 10872 10877 10882 10887 10892 10896 10900 10903 10905 10907 10909 10912 10916 10919 10921 10923 10927 10930 10932 10934 10935 10935 10937 10939 10940 10939 10939 10940 10941 10942 10943 10943 10943 10943 10944 10944 10942 10941 10940 10940 10940 10940 10940 10939 10939 10940 10940 10940 10938 10937 10936 10935 10934 10934 10934 10934 10933 10933 10932 10931 10931 10930 10930 10929 10929 10928 10927 10925 10923 10921 10919 10918 10916 10915 10913 10912
10827 10831 10835 10839 10842 10846 10850 10854 10859 10864 10869 10874 10879 10884 10888 10892 10896 10898 10900 10903 10906 10910 10913 10915 10918 10921 10924 10926 10928 10929 10930 10932 10934 10934 10934 10935 10935 10936 10937 10938 10940 10940 10940 10941 10940 10938 10937 10937 10938 10938 10938 10937 10935 10935 10936 10935 10934 10933 10932 10932 10932 10931 10930 10929 10929 10929 10929 10928 10927 10927 10926 10925 10925 10924 10924 10923 10921 10919 10917 10915 10914 10912 10911 10909 10907
10817 10822 10825 10829 10833 10837 10841 10845 10850 10856 10862 10867 10872 10877 10881 10885 10889 10891 10893 10896 10900 10903 10906 10908 10911 10914 10917 10919 10921 10923 10924 10926 10927 10928 10929 10929 10930 10930 10931 10933 10934 10935 10936 10935 10935 10934 10933 10934 10934 10935 10935 10933 10932 10931 10931 10930 10929 10928 10928 10928 10927 10926 10925 10924 10924 10924 10924 10924 10923 10922 10921 10921 10921 10920 10919 10918 10917 10915 10913 10911 10909 10908 10906 10904 10902
10808 10812 10816 10820 10824 10828 10832 10837 10843 10849 10855 10860 10864 10869 10873 10877 10881 10883 10886 10890 10893 10896 10899 10901 10904 10907 10911 10913 10915 10916 10918 10919 10921 10922 10923 10923 10923 10924 10925 10926 10927 10928 10928 10929 10928 10928 10929 10929 10930 10930 10930 10929 10928 10927 10926 10925 10924 10923 10923 10923 10923 10922 10920 10918 10918 10919 10919 10918 10917 10917 10917 10916 10915 10915 10915 10914 10912 10910 10908 10906 10904 10903 10901 10899 10897
10797 10801 10806 10811 10816 10820 10825 10830 10836 10841 10847 10852 10857 10861 10866 10869 10873 10876 10879 10883 10886 10889 10892 10894 10897 10901 10904 10907 10909 10910 10911 10913 10914 10916 10917 10918 10918 10919 10920 10920 10920 10920 10920 10921 10921 10922 10923 10924 10924 10924 10924 10924 10923 10922 10922 10921 10920 10919 10918 10919 10918 10917 10915 10913 10913 10913 10913 10912 10911 10911 10911 10910 10910 10909 10909 10908 10907 10905 10903 10901 10899 10898 10897 10897 10897
10785 10790 10796 10801 10806 10811 10817 10822 10827 10832 10838 10843 10848 10853 10857 10862 10866 10869 10872 10876 10879 10882 10885 10887 10890 10894 10897 10900 10902 10903 10904 10906 10909 10911 10912 10913 10914 10915 10915 10915 10915 10914 10915 10915 10915 10916 10916 10917 10916 10917 10918 10918 10917 10916 10917 10916 10915 10914 10914 10914 10914 10912 10910 10909 10909 10908 10907 10905 10905 10905 10905 10904 10904 10903 10903 10902 10901 10900 10897 10895 10894 10893 10894 10896 10896
10773 10778 10784 10790 10796 10801 10807 10813 10819 10824 10829 10834 10839 10844 10848 10853 10858 10861 10865 10869 10872 10875 10877 10880 10883 10887 10890 10892 10893 10895 10897 10900 10903 10905 10907 10908 10909 10910 10910 10910 10910 10910 10911 10911 10911 10911 10911 10910 10909 10910 10910 10910 10909 10909 10910 10910 10910 10910 10910 10910 10909 10907 10905 10904 10903 10902 10901 10900 10899 10898 10898 10898 10898 10898 10897 10897 10895 10894 10892 10890 10889 10888 10888 10888 10886
10761 10767 10773 10779 10785 10791 10797 10804 10810 10815 10820 10824 10829 10834 10839 10844 10849 10853 10857 10861 10864 10867 10870 10873 10875 10880 10882 10882 10883 10887 10891 10894 10897 10900 10901 10902 10903 10904 10904 10904 10905 10906 10906 10907 10907 10907 10906 10905 10904 10903 10903 10903 10902 10903 10903 10904 10904 10905 10904 10904 10903 10901 10899 10898 10897 10896 10895 10894 10893 10892 10891 10891 10892 10892 10892 10891 10890 10889 10887 10886 10884 10883 10881 10879 10877
10749 10755 10761 10768 10774 10780 10787 10793 10800 10806 10810 10815 10820 10825 10830 10835 10839 10844 10848 10852 10856 10860 10863 10865 10869 10872 10873 10873 10876 10881 10885 10888 10891 10893 10895 10897 10898 10898 10899 10899 10900 10900 10900 10901 10901 10901 10901 10900 10898 10897 10896 10896 10896 10896 10896 10897 10897 10898 10898 10897 10896 10895 10893 10892 10892 10891 10890 10889 10887 10886 10885 10885 10886 10886 10886 10886 10885 10884 10882 10881 10882 10880 10877 10874 10873
10737 10743 10750 10757 10763 10769 10776 10782 10788 10794 10800 10805 10810 10816 10821 10826 10830 10835 10839 10843 10848 10851 10854 10858 10861 10863 10863 10865 10870 10875 10879 10882 10885 10887 10889 10891 10892 10893 10893 10894 10894 10894 10894 10895 10895 10894 10894 10894 10893 10891 10890 10889 10889 10890 10890 10890 10890 10891 10891 10890 10889 10888 10887 10886 10886 10886 10885 10883 10882 10881 10880 10879 10880 10879 10879 10880 10880 10879 10878 10880 10880 10877 10872 10870 10869
10724 10731 10738 10745 10752 10758 10764 10770 10777 10783 10789 10794 10800 10806 10812 10817 10821 10826 10830 10835 10839 10842 10846 10850 10853 10854 10854 10858 10863 10868 10872 10875 10878 10880 10882 10884 10885 10886 10886 10887 10887 10888 10889 10890 10888 10886 10886 10888 10888 10887 10886 10884 10884 10884 10885 10883 10883 10883 10883 10883 10882 10882 10881 10880 10880 10880 10880 10879 10877 10876 10875 10875 10875 10874 10873 10874 10873 10872 10874 10877 10876 10870 10864 10861 10862
10711 10718 10726 10733 10739 10745 10751 10758 10765 10771 10777 10784 10790 10796 10802 10808 10812 10817 10822 10826 10830 10833 10837 10842 10844 10845 10847 10850 10855 10859 10864 10868 10870 10872 10875 10877 10877 10877 10878 10879 10880 10881 10883 10885 10883 10880 10880 10882 10883 10882 10881 10879 10877 10878 10878 10877 10875 10875 10875 10875 10875 10875 10874 10873 10872 10872 10873 10873 10872 10871 10870 10870 10869 10868 10868 10868 10866 10865 10867 10869 10869 10865 10858 10854 10854
10698 10706 10713 10720 10727 10733 10739 10746 10753 10760 10766 10773 10779 10786 10792 10798 10803 10808 10812 10817 10820 10824 10828 10832 10834 10836 10838 10842 10845 10850 10855 10858 10860 10864 10867 10869 10869 10870 10871 10872 10873 10874 10876 10878 10877 10875 10875 10876 10875 10875 10874 10872 10870 10871 10871 10869 10868 10868 10868 10868 10866 10865 10866 10866 10865 10865 10865 10866 10865 10865 10864 10864 10863 10862 10861 10861 10861 10860 10859 10858 10859 10858 10855 10851 10849
10687 10694 10701 10708 10716 10722 10729 10735 10742 10749 10755 10762 10768 10774 10781 10787 10792 10797 10802 10807 10811 10815 10819 10823 10825 10827 10830 10832 10835 10841 10846 10848 10851 10855 10859 10861 10861 10863 10864 10866 10866 10867 10868 10870 10869 10869 10869 10869 10869 10869 10867 10864 10863 10864 10864 10862 10861 10861 10861 10860 10859 10857 10856 10856 10856 10856 10857 10857 10857 10857 10857 10856 10855 10854 10854 10853 10853 10854 10853 10851 10848 10849 10849 10848 10845
10677 10684 10691 10698 10705 10712 10718 10724 10731 10738 10745 10751 10757 10763 10769 10775 10781 10786 10792 10796 10801 10805 10809 10813 10815 10818 10821 10823 10826 10832 10837 10840 10843 10847 10850 10852 10853 10855 10857 10859 10859 10859 10860 10861 10862 10862 10862 10863 10863 10864 10862 10859 10857 10857 10857 10856 10853 10852 10852 10853 10852 10850 10848 10846 10846 10846 10847 10847 10848 10848 10848 10848 10846 10845 10845 10845 10844 10845 10846 10845 10843 10841 10841 10841 10839
10665 10672 10680 10687 10694 10700 10707 10713 10720 10727 10734 10740 10746 10751 10757 10763 10769 10775 10781 10786 10790 10794 10799 10802 10806 10809 10812 10815 10818 10823 10827 10831 10834 10837 10840 10842 10844 10847 10849 10850 10851 10851 10852 10853 10854 10854 10855 10856 10857 10858 10859 10856 10853 10852 10853 10850 10845 10842 10844 10844 10843 10842 10840 10837 10837 10838 10838 10838 10838 10838 10838 10837 10836 10835 10835 10836 10836 10836 10837 10837 10836 10835 10834 10834 10832
10652 10660 10667 10675 10682 10689 10695 10701 10708 10715 10722 10729 10735 10740 10745 10751 10758 10764 10770 10776 10780 10784 10788 10792 10796 10800 10803 10807 10810 10814 10818 10822 10825 10828 10830 10832 10834 10837 10840 10842 10843 10843 10842 10843 10844 10845 10847 10849 10850 10853 10855 10854 10850 10848 10850 10846 10837 10833 10834 10835 10833 10832 10832 10830 10830 10830 10830 10830 10830 10829 10828 10827 10827 10826 10826 10826 10827 10827 10827 10826 10825 10824 10824 10823 10821
10639 10646 10654 10662 10669 10676 10683 10690 10696 10703 10710 10717 10724 10729 10734 10740 10747 10753 10760 10765 10770 10775 10779 10783 10787 10791 10795 10798 10802 10805 10808 10812 10816 10818 10820 10821 10823 10827 10831 10833 10832 10832 10832 10833 10834 10836 10838 10841 10843 10846 10849 10848 10843 10840 10841 10838 10831 10826 10825 10824 10822 10822 10822 10821 10821 10821 10821 10821 10820 10818 10817 10816 10816 10816 10816 10817 10817 10817 10816 10815 10814 10813 10812 10810 10809
10625 10634 10641 10648 10656 10664 10671 10678 10684 10691 10698 10705 10712 10718 10724 10730 10736 10742 10748 10753 10758 10763 10768 10773 10778 10782 10785 10789 10792 10795 10799 10801 10804 10806 10809 10810 10813 10818 10822 10823 10822 10822 10823 10823 10825 10827 10829 10831 10833 10836 10837 10837 10833 10830 10828 10827 10823 10818 10815 10813 10811 10810 10809 10808 10808 10808 10808 10808 10807 10806 10806 10805 10805 10805 10806 10807 10807 10805 10803 10802 10802 10801 10800 10798 10796
10611 10620 10628 10635 10643 10651 10658 10666 10673 10680 10686 10693 10700 10707 10714 10720 10725 10730 10735 10740 10746 10751 10757 10762 10767 10771 10775 10779 10782 10785 10788 10791 10792 10794 10798 10801 10804 10810 10814 10815 10815 10816 10815 10814 10815 10818 10819 10821 10823 10826 10827 10827 10824 10820 10819 10819 10816 10811 10808 10807 10805 10803 10802 10802 10800 10796 10794 10793 10794 10795 10795 10795 10796 10797 10797 10797 10796 10794 10792 10789 10787 10787 10787 10785 10783
10596 10606 10614 10622 10630 10638 10646 10654 10661 10668 10674 10680 10687 10695 10702 10708 10713 10718 10722 10727 10733 10739 10745 10750 10755 10760 10765 10769 10772 10775 10778 10781 10782 10784 10788 10791 10796 10801 10805 10807 10809 10810 10808 10805 10806 10808 10810 10812 10814 10816 10819 10819 10817 10813 10812 10811 10808 10804 10804 10807 10806 10802 10801 10802 10798 10791 10784 10783 10784 10784 10784 10785 10787 10788 10786 10785 10785 10785 10782 10779 10775 10772 10771 10769 10768